Tracking 22780 objects as of 11-Apr-2021
HD Live streaming from Space Station
objects crossing your sky now

STARLINK-1205

Track STARLINK-1205 now!
10-day predictions
STARLINK-1205 is classified as:


NORAD ID: 45184
Int'l Code: 2020-012G
Perigee: 553.7 km
Apogee: 555.1 km
Inclination: 53.1 °
Period: 95.6 minutes
Semi major axis: 6925 km
RCS: Unknown
Launch date: February 17, 2020
Source: United States (US)
Launch site: AIR FORCE EASTERN TEST RANGE (AFETR)
aabbcc
Your satellite tracking list
Your tracking list is empty




NASA's NSSDC Master Catalog

Two Line Element Set (TLE):
1 45184U 20012G   21100.54451616  .00000636  00000-0  61611-4 0  9997
2 45184  53.0565 160.8448 0001019 137.1850 222.9219 15.06392689 63730
Source of the keplerian elements: AFSPC